Location: Eurasberg
(48.3353°N, 11.0839°E)
Time: 16:11:49
(UTC+00:00)

Cosmos 540 Rocket - Pass Details

Date: 18 January 2026
Orbit: 736 x 747 km, 74.1° (Epoch: 18 February)

Event Time Altitude Azimuth Distance (km) Brightness Sun altitude
Exits shadow 04:40:36 13° 350° (N) 2,034 5.5 -22.6°
Maximum altitude 04:44:54 45° 61° (ENE) 996 4.4 -21.9°
Drops below altitude 10° 04:49:45 10° 134° (SE) 2,241 6.6 -21.1°
Sets 04:52:12 0° 141° (SE) 3,162 7.4 -20.7°
